TimeCDT,TemperatureF,Dew PointF,Humidity,Sea Level PressureIn,VisibilityMPH,Wind Direction,Wind SpeedMPH,Gust SpeedMPH,PrecipitationIn,Events,Conditions,WindDirDegrees,DateUTC
12:15 AM,-9999,-9999,N/A,30.18,5.0,Calm,Calm,-,N/A,,Haze,0,2012-10-12 05:15:00
12:35 AM,-9999,-9999,N/A,30.18,4.0,Calm,Calm,-,N/A,,Haze,0,2012-10-12 05:35:00
12:55 AM,-9999,-9999,N/A,30.18,4.0,Calm,Calm,-,N/A,,Haze,0,2012-10-12 05:55:00
1:15 AM,-9999,-9999,N/A,30.18,4.0,Calm,Calm,-,N/A,,Haze,0,2012-10-12 06:15:00
1:35 AM,-9999,-9999,N/A,30.18,5.0,Calm,Calm,-,N/A,,Haze,0,2012-10-12 06:35:00
1:55 AM,-9999,-9999,N/A,30.17,4.0,Calm,Calm,-,N/A,,Haze,0,2012-10-12 06:55:00
2:15 AM,-9999,-9999,N/A,30.17,4.0,Calm,Calm,-,N/A,,Haze,0,2012-10-12 07:15:00
2:35 AM,-9999,-9999,N/A,30.17,5.0,Calm,Calm,-,N/A,,Haze,0,2012-10-12 07:35:00
2:55 AM,-9999,-9999,N/A,30.17,4.0,Calm,Calm,-,N/A,,Haze,0,2012-10-12 07:55:00
3:15 AM,-9999,-9999,N/A,30.17,5.0,Calm,Calm,-,N/A,,Haze,0,2012-10-12 08:15:00
3:35 AM,-9999,-9999,N/A,30.17,4.0,Calm,Calm,-,N/A,,Haze,0,2012-10-12 08:35:00
3:55 AM,-9999,-9999,N/A,30.17,4.0,Calm,Calm,-,N/A,,Haze,0,2012-10-12 08:55:00
4:15 AM,-9999,-9999,N/A,30.17,5.0,Calm,Calm,-,N/A,,Haze,0,2012-10-12 09:15:00
4:35 AM,-9999,-9999,N/A,30.16,0.2,Calm,Calm,-,N/A,Fog,Fog,0,2012-10-12 09:35:00
4:55 AM,-9999,-9999,N/A,30.17,0.8,Calm,Calm,-,N/A,,Overcast,0,2012-10-12 09:55:00
5:15 AM,59.0,59.0,100,30.17,0.2,Calm,Calm,-,N/A,Fog,Fog,0,2012-10-12 10:15:00
5:55 AM,57.2,57.2,100,30.18,2.5,Calm,Calm,-,N/A,,Overcast,0,2012-10-12 10:55:00
6:15 AM,57.2,57.2,100,30.18,3.0,Calm,Calm,-,N/A,,Overcast,0,2012-10-12 11:15:00
6:35 AM,57.2,57.2,100,30.18,0.2,Calm,Calm,-,N/A,Fog,Fog,0,2012-10-12 11:35:00
6:55 AM,59.0,59.0,100,30.19,0.2,Calm,Calm,-,N/A,Fog,Fog,0,2012-10-12 11:55:00
7:15 AM,57.2,57.2,100,30.20,0.2,Calm,Calm,-,N/A,Fog,Fog,0,2012-10-12 12:15:00
7:35 AM,59.0,59.0,100,30.20,0.2,Calm,Calm,-,N/A,Fog,Fog,0,2012-10-12 12:35:00
7:55 AM,59.0,59.0,100,30.21,0.2,Calm,Calm,-,N/A,Fog,Fog,0,2012-10-12 12:55:00
8:15 AM,60.8,60.8,100,30.21,0.2,Calm,Calm,-,N/A,Fog,Fog,0,2012-10-12 13:15:00
8:35 AM,62.6,62.6,100,30.23,0.2,Calm,Calm,-,N/A,Fog,Fog,0,2012-10-12 13:35:00
8:55 AM,66.2,66.2,100,30.23,3.0,Calm,Calm,-,N/A,,Overcast,0,2012-10-12 13:55:00
9:15 AM,68.0,68.0,100,30.23,5.0,East,3.5,-,N/A,,Scattered Clouds,100,2012-10-12 14:15:00
9:35 AM,68.0,68.0,100,30.23,10.0,Calm,Calm,-,N/A,,Clear,0,2012-10-12 14:35:00
9:55 AM,73.4,69.8,88,30.24,10.0,SE,4.6,-,N/A,,Scattered Clouds,130,2012-10-12 14:55:00
10:15 AM,75.2,66.2,73,30.24,10.0,SE,4.6,-,N/A,,Mostly Cloudy,130,2012-10-12 15:15:00
10:35 AM,77.0,64.4,65,30.24,10.0,SE,5.8,-,N/A,,Clear,140,2012-10-12 15:35:00
10:55 AM,77.0,64.4,65,30.24,10.0,SE,5.8,-,N/A,,Clear,130,2012-10-12 15:55:00
11:15 AM,78.8,64.4,61,30.25,10.0,East,3.5,-,N/A,,Clear,90,2012-10-12 16:15:00
11:35 AM,78.8,64.4,61,30.25,10.0,East,4.6,-,N/A,,Clear,90,2012-10-12 16:35:00
11:55 AM,78.8,66.2,65,30.24,10.0,ENE,3.5,-,N/A,,Scattered Clouds,70,2012-10-12 16:55:00
12:15 PM,78.8,66.2,65,30.24,10.0,Calm,Calm,-,N/A,,Scattered Clouds,0,2012-10-12 17:15:00
12:35 PM,80.6,66.2,61,30.24,10.0,Calm,Calm,-,N/A,,Mostly Cloudy,0,2012-10-12 17:35:00
12:55 PM,78.8,66.2,65,30.23,10.0,SSE,3.5,-,N/A,,Mostly Cloudy,160,2012-10-12 17:55:00
1:35 PM,80.6,64.4,58,30.21,10.0,Calm,Calm,-,N/A,,Clear,0,2012-10-12 18:35:00
1:55 PM,80.6,64.4,58,30.20,10.0,Calm,Calm,-,N/A,,Scattered Clouds,0,2012-10-12 18:55:00
2:15 PM,82.4,62.6,51,30.20,10.0,Calm,Calm,-,N/A,,Clear,0,2012-10-12 19:15:00
2:35 PM,82.4,62.6,51,30.18,10.0,Calm,Calm,-,N/A,,Scattered Clouds,0,2012-10-12 19:35:00
3:15 PM,84.2,62.6,48,30.17,10.0,Calm,Calm,-,N/A,,Scattered Clouds,0,2012-10-12 20:15:00
3:35 PM,84.2,64.4,51,30.17,10.0,NE,5.8,-,N/A,,Clear,50,2012-10-12 20:35:00
3:55 PM,82.4,64.4,54,30.17,10.0,Calm,Calm,-,N/A,,Clear,0,2012-10-12 20:55:00
4:15 PM,82.4,62.6,51,30.17,10.0,SE,3.5,-,N/A,,Scattered Clouds,130,2012-10-12 21:15:00
4:35 PM,82.4,64.4,54,30.17,10.0,East,4.6,-,N/A,,Scattered Clouds,100,2012-10-12 21:35:00
4:55 PM,82.4,64.4,54,30.16,10.0,East,3.5,-,N/A,,Clear,90,2012-10-12 21:55:00
5:15 PM,82.4,64.4,54,30.16,10.0,Calm,Calm,-,N/A,,Clear,0,2012-10-12 22:15:00
5:55 PM,80.6,66.2,61,30.16,10.0,Calm,Calm,-,N/A,,Clear,0,2012-10-12 22:55:00
6:15 PM,78.8,68.0,69,30.16,10.0,Calm,Calm,-,N/A,,Clear,0,2012-10-12 23:15:00
6:35 PM,73.4,73.4,100,30.16,10.0,Calm,Calm,-,N/A,,Clear,0,2012-10-12 23:35:00
6:55 PM,73.4,73.4,100,30.16,10.0,Calm,Calm,-,N/A,,Clear,0,2012-10-12 23:55:00
7:15 PM,-9999,-9999,N/A,30.16,7.0,Calm,Calm,-,N/A,,Clear,0,2012-10-13 00:15:00
7:35 PM,-9999,-9999,N/A,30.16,4.0,Calm,Calm,-,N/A,,Haze,0,2012-10-13 00:35:00
7:55 PM,-9999,-9999,N/A,30.17,5.0,Calm,Calm,-,N/A,,Haze,0,2012-10-13 00:55:00
8:15 PM,-9999,-9999,N/A,30.17,5.0,Calm,Calm,-,N/A,,Haze,0,2012-10-13 01:15:00
8:35 PM,-9999,-9999,N/A,30.18,4.0,Calm,Calm,-,N/A,,Haze,0,2012-10-13 01:35:00
9:15 PM,-9999,-9999,N/A,30.18,4.0,Calm,Calm,-,N/A,,Haze,0,2012-10-13 02:15:00
9:35 PM,-9999,-9999,N/A,30.18,4.0,Calm,Calm,-,N/A,,Haze,0,2012-10-13 02:35:00
9:55 PM,-9999,-9999,N/A,30.19,4.0,Calm,Calm,-,N/A,,Haze,0,2012-10-13 02:55:00
10:15 PM,-9999,-9999,N/A,30.18,4.0,Calm,Calm,-,N/A,,Haze,0,2012-10-13 03:15:00
10:35 PM,-9999,-9999,N/A,30.19,5.0,Calm,Calm,-,N/A,,Haze,0,2012-10-13 03:35:00
11:15 PM,-9999,-9999,N/A,30.18,7.0,Calm,Calm,-,N/A,,Clear,0,2012-10-13 04:15:00
11:35 PM,-9999,-9999,N/A,30.18,4.0,Calm,Calm,-,N/A,,Haze,0,2012-10-13 04:35:00
11:55 PM,-9999,-9999,N/A,30.17,4.0,Calm,Calm,-,N/A,,Haze,0,2012-10-13 04:55:00